星链-34893(STARLINK-34893)

导读 | 豆包AI

STARLINK-34893是美国太空探索技术公司(SpaceX)星链(Starlink)项目的卫星,于2025年9月25日发射入轨。星链项目旨在构建全球卫星互联网通信系统,为全球用户提供高速、低延迟的宽带服务。该卫星属于星链星座组网的一部分,加入了SpaceX近地轨道庞大的卫星网络,助力拓展星链覆盖范围与网络容量,支撑全球卫星互联网服务能力提升。

Basic Information
目录编号:
65752
目录名称:
STARLINK-34893
国际标识:
2025-216U
轨道中心:
EARTH
卫星名称:
星链-34893
卫星全名:
星链-34893(STARLINK-34893)
卫星状态:
在轨 (已飞行216 天)
发射日期:
2025-09-25 UTC
国别 :
美国 (US)
星等 :
--
Orbit Information
数据来源 国际轨道数据 AOE轨道数据
星历时间 2026-04-29T11:00:05+0800
8小时前
查看轨道信息
2026-04-29T00:00:00+0800
19小时前
查看轨道信息
半长轴 6853.329km 6853.355km
偏心率 0.0001754 0.0001298
轨道倾角 53.159° 53.158°
近地点辐角 88.003° 94.826°
升交点赤经 98.752° 100.881°
平近点角 272.117° 258.761°
近地点 473.989km 474.328km
远地点 476.395km 476.108km
周期 94.105分钟 94.105分钟
每日圈数 15.302079 15.301993
Detailed Information
固有亮度:
5
最大亮度:
2.5
卫星平台:
Starlink V1.0
覆盖范围:
全球
运营商:
太空探索技术公司
运营商所在国:
美国
制造商(研发单位):
太空探索技术公司
制造商所在国:
美国
使用方式:
暂无
Satellite Introduction
Starlink 计划是 SpaceX 推出的全球卫星互联网项目,通过发射低轨道卫星,为全球尤其是偏远地区提供高速、低延迟的互联网服务。自 2019 年起,Starlink 已部署数千颗卫星,旨在缩小全球数字鸿沟,推动互联网普及。该项目还为军事、航空等行业提供通信支持,带来广泛经济效益。
2D Orbit Map
3D Orbit Map
Orbit Altitude Analysis Chart
Orbit Inclination Analysis Chart
Orbit Comprehensive Analysis Chart
View Comprehensive Chart